| time (UTC) | temp C | wind direction | speed KPH | gust KPH | rain 1hr cm | rain 24hr cm | rain mn cm | humidity % | barometer mb |
| 20260901190412 | 20 | 359 | 1.6 | 4.8 | 0.00 | 0.00 | 0.00 | 61 | 1020.3 |
| 20260901184911 | 20 | 134 | 0.0 | 3.2 | 0.00 | 0.00 | 0.00 | 59 | 1020.1 |
| 20260901183411 | 20 | 107 | 1.6 | 4.8 | 0.00 | 0.00 | 0.00 | 59 | 1020.1 |
| 20260901181912 | 21 | 78 | 1.6 | 4.8 | 0.00 | 0.00 | 0.00 | 57 | 1019.9 |
| 20260901180413 | 21 | 45 | 1.6 | 4.8 | 0.00 | 0.00 | 0.00 | 54 | 1019.8 |
| 20260901170412 | 22 | 8 | 1.6 | 6.4 | 0.00 | 0.00 | 0.00 | 51 | 1019.5 |
| 20260901164912 | 22 | 145 | 3.2 | 9.7 | 0.00 | 0.00 | 0.00 | 50 | 1019.6 |
| 20260901161913 | 22 | 45 | 6.4 | 9.7 | 0.00 | 0.00 | 0.00 | 50 | 1019.5 |
| 20260901160413 | 22 | 8 | 3.2 | 8.0 | 0.00 | 0.00 | 0.00 | 47 | 1019.5 |
| 20260901154913 | 23 | 101 | 4.8 | 6.4 | 0.00 | 0.00 | 0.00 | 47 | 1019.5 |
| 20260901153412 | 23 | 205 | 1.6 | 9.7 | 0.00 | 0.00 | 0.00 | 46 | 1019.6 |
| 20260901151912 | 23 | 359 | 1.6 | 8.0 | 0.00 | 0.00 | 0.00 | 47 | 1019.6 |
| 20260901150413 | 23 | 135 | 3.2 | 8.0 | 0.00 | 0.00 | 0.00 | 44 | 1019.7 |
| 20260901144914 | 23 | 301 | 4.8 | 9.7 | 0.00 | 0.00 | 0.00 | 44 | 1019.9 |
| 20260901143412 | 24 | 297 | 9.7 | 16.1 | 0.00 | 0.00 | 0.00 | 43 | 1019.7 |
| 20260901141913 | 24 | 359 | 9.7 | 14.5 | 0.00 | 0.00 | 0.00 | 43 | 1019.8 |
| 20260901140411 | 24 | 226 | 8.0 | 17.7 | 0.00 | 0.00 | 0.00 | 43 | 1019.9 |
| 20260901134912 | 24 | 236 | 8.0 | 17.7 | 0.00 | 0.00 | 0.00 | 42 | 1019.9 |
| 20260901131912 | 23 | 326 | 3.2 | 11.3 | 0.00 | 0.00 | 0.00 | 46 | 1020.3 |
| 20260901130412 | 23 | 98 | 3.2 | 11.3 | 0.00 | 0.00 | 0.00 | 46 | 1020.5 |
| 20260901124911 | 23 | 275 | 6.4 | 14.5 | 0.00 | 0.00 | 0.00 | 47 | 1020.5 |
| 20260901123412 | 24 | 177 | 6.4 | 11.3 | 0.00 | 0.00 | 0.00 | 44 | 1020.6 |
| 20260901121911 | 23 | 359 | 8.0 | 16.1 | 0.00 | 0.00 | 0.00 | 46 | 1020.6 |
| 20260901114912 | 22 | 252 | 8.0 | 11.3 | 0.00 | 0.00 | 0.00 | 49 | 1020.9 |
| 20260901113411 | 22 | 303 | 8.0 | 14.5 | 0.00 | 0.00 | 0.00 | 49 | 1021.0 |
| 20260901111911 | 23 | 284 | 9.7 | 16.1 | 0.00 | 0.00 | 0.00 | 48 | 1021.1 |
| 20260901110411 | 23 | 264 | 9.7 | 12.9 | 0.00 | 0.00 | 0.00 | 48 | 1021.1 |
| 20260901103412 | 23 | 255 | 8.0 | 16.1 | 0.00 | 0.00 | 0.00 | 48 | 1021.3 |
| 20260901101912 | 22 | 210 | 9.7 | 19.3 | 0.00 | 0.00 | 0.00 | 49 | 1021.3 |
| 20260901100413 | 22 | 289 | 4.8 | 19.3 | 0.00 | 0.00 | 0.00 | 48 | 1021.3 |
| 20260901094912 | 22 | 192 | 6.4 | 14.5 | 0.00 | 0.00 | 0.00 | 49 | 1021.3 |
| 20260901093412 | 22 | 282 | 9.7 | 14.5 | 0.00 | 0.00 | 0.00 | 51 | 1021.4 |
| 20260901091911 | 22 | 304 | 6.4 | 16.1 | 0.00 | 0.00 | 0.00 | 51 | 1021.5 |
| 20260901083411 | 21 | 359 | 3.2 | 12.9 | 0.00 | 0.00 | 0.00 | 53 | 1021.4 |
| 20260901080413 | 21 | 216 | 6.4 | 12.9 | 0.00 | 0.00 | 0.00 | 56 | 1021.5 |
| 20260901074913 | 21 | 177 | 1.6 | 11.3 | 0.00 | 0.00 | 0.00 | 57 | 1021.5 |
| 20260901073413 | 21 | 280 | 6.4 | 14.5 | 0.00 | 0.00 | 0.00 | 57 | 1021.4 |
| 20260901071913 | 20 | 221 | 4.8 | 8.0 | 0.00 | 0.00 | 0.00 | 59 | 1021.3 |
| 20260901064911 | 19 | 221 | 6.4 | 9.7 | 0.00 | 0.00 | 0.00 | 63 | 1021.4 |
| 20260901063412 | 18 | 230 | 4.8 | 8.0 | 0.00 | 0.00 | 0.00 | 64 | 1021.5 |
| 20260901061911 | 18 | 253 | 1.6 | 4.8 | 0.00 | 0.00 | 0.00 | 67 | 1021.4 |
| 20260901060415 | 17 | 183 | 3.2 | 6.4 | 0.00 | 0.00 | 0.00 | 68 | 1021.3 |
| 20260901054912 | 16 | 160 | 3.2 | 4.8 | 0.00 | 0.00 | 0.00 | 72 | 1021.3 |
| 20260901053413 | 14 | 225 | 3.2 | 6.4 | 0.00 | 0.00 | 0.00 | 77 | 1021.1 |
| 20260901051912 | 13 | 217 | 1.6 | 4.8 | 0.00 | 0.00 | 0.00 | 78 | 1020.9 |
| 20260901050412 | 13 | 240 | 0.0 | 3.2 | 0.00 | 0.00 | 0.00 | 78 | 1020.8 |
| 20260901043411 | 14 | 235 | 0.0 | 4.8 | 0.00 | 0.00 | 0.00 | 77 | 1020.7 |
| 20260901041911 | 15 | 59 | 1.6 | 4.8 | 0.00 | 0.00 | 0.00 | 75 | 1020.7 |
| 20260901034913 | 15 | 107 | 0.0 | 1.6 | 0.00 | 0.05 | 0.00 | 72 | 1020.8 |
| 20260901033413 | 15 | 134 | 0.0 | 1.6 | 0.00 | 0.05 | 0.00 | 71 | 1020.8 |
| 20260901031911 | 15 | 205 | 0.0 | 3.2 | 0.00 | 0.05 | 0.00 | 70 | 1020.8 |
| 20260901030412 | 15 | 285 | 1.6 | 4.8 | 0.00 | 0.05 | 0.00 | 70 | 1020.9 |
| 20260901024911 | 15 | 222 | 1.6 | 4.8 | 0.00 | 0.05 | 0.00 | 70 | 1021.0 |
| 20260901023412 | 15 | 222 | 1.6 | 3.2 | 0.00 | 0.05 | 0.00 | 70 | 1021.1 |
| 20260901020412 | 16 | 330 | 0.0 | 4.8 | 0.00 | 0.05 | 0.00 | 69 | 1021.0 |
| 20260901014912 | 16 | 359 | 1.6 | 6.4 | 0.00 | 0.05 | 0.00 | 69 | 1021.1 |
| 20260901013411 | 15 | 209 | 6.4 | 9.7 | 0.00 | 0.05 | 0.00 | 70 | 1020.9 |
| 20260901004912 | 15 | 222 | 1.6 | 4.8 | 0.00 | 0.05 | 0.00 | 72 | 1020.9 |
| 20260901003411 | 16 | 206 | 1.6 | 12.9 | 0.00 | 0.05 | 0.00 | 71 | 1020.6 |
| 20260901001912 | 16 | 359 | 4.8 | 9.7 | 0.00 | 0.05 | 0.00 | 72 | 1020.8 |
| 20260901000413 | 16 | 245 | 1.6 | 6.4 | 0.00 | 0.05 | 0.00 | 72 | 1020.8 |
| 20260831234911 | 16 | 232 | 6.4 | 11.3 | 0.00 | 0.08 | 0.00 | 73 | 1020.6 |
| 20260831231911 | 16 | 226 | 3.2 | 9.7 | 0.00 | 0.08 | 0.00 | 72 | 1020.4 |
| 20260831230411 | 16 | 359 | 3.2 | 4.8 | 0.00 | 0.08 | 0.00 | 71 | 1020.2 |
| 20260831224912 | 17 | 239 | 1.6 | 4.8 | 0.00 | 0.23 | 0.00 | 70 | 1020.0 |
| 20260831221912 | 17 | 301 | 1.6 | 6.4 | 0.00 | 0.23 | 0.00 | 68 | 1019.9 |
| 20260831214912 | 18 | 294 | 3.2 | 8.0 | 0.00 | 0.30 | 0.30 | 65 | 1019.7 |
| 20260831213411 | 18 | 220 | 4.8 | 8.0 | 0.00 | 0.30 | 0.30 | 65 | 1019.4 |
| 20260831210412 | 18 | 245 | 4.8 | 8.0 | 0.00 | 0.30 | 0.30 | 65 | 1018.9 |
| 20260831204914 | 18 | 230 | 3.2 | 6.4 | 0.00 | 0.30 | 0.30 | 64 | 1018.6 |
| 20260831203414 | 19 | 198 | 4.8 | 11.3 | 0.00 | 0.30 | 0.30 | 63 | 1018.6 |
| 20260831201914 | 19 | 359 | 6.4 | 11.3 | 0.00 | 0.30 | 0.30 | 62 | 1018.4 |
| 20260831200414 | 19 | 223 | 6.4 | 12.9 | 0.00 | 0.30 | 0.30 | 61 | 1018.2 |
| 20260831194912 | 19 | 215 | 6.4 | 12.9 | 0.00 | 0.30 | 0.30 | 60 | 1018.1 |
| 20260831191913 | 19 | 237 | 8.0 | 14.5 | 0.00 | 0.30 | 0.30 | 59 | 1017.9 |